Time,TemperatureF,DewpointF,PressureIn,WindDirection,WindDirectionDegrees,WindSpeedMPH,WindSpeedGustMPH,Humidity,HourlyPrecipIn,Conditions,Clouds,dailyrainin,SoftwareType,DateUTC
2013-08-26 00:13:00,78.0,70.0,30.13,South,170,0.0,0.0,76,0.00,,,0.00,,2013-08-26 05:13:00,
2013-08-26 00:23:00,78.0,70.0,30.13,South,170,0.0,0.0,76,0.00,,,0.00,,2013-08-26 05:23:00,
2013-08-26 00:43:00,78.0,70.0,30.13,South,170,0.0,0.0,76,0.00,,,0.00,,2013-08-26 05:43:00,
2013-08-26 00:52:00,78.0,70.0,30.12,South,170,0.0,0.0,77,0.00,,,0.00,,2013-08-26 05:52:00,
2013-08-26 01:12:00,78.0,70.0,30.12,South,170,0.0,0.0,77,0.00,,,0.00,,2013-08-26 06:12:00,
2013-08-26 01:21:00,78.0,70.0,30.12,South,170,1.0,1.0,77,0.00,,,0.00,,2013-08-26 06:21:00,
2013-08-26 01:42:00,78.0,71.0,30.12,South,170,0.0,0.0,78,0.00,,,0.00,,2013-08-26 06:42:00,
2013-08-26 01:52:00,77.0,70.0,30.12,South,170,0.0,0.0,79,0.00,,,0.00,,2013-08-26 06:52:00,
2013-08-26 02:11:00,77.0,70.0,30.12,South,170,0.0,0.0,80,0.00,,,0.00,,2013-08-26 07:11:00,
2013-08-26 02:22:00,77.0,70.0,30.12,South,170,0.0,0.0,80,0.00,,,0.00,,2013-08-26 07:22:00,
2013-08-26 02:42:00,76.0,70.0,30.11,South,170,0.0,0.0,81,0.00,,,0.00,,2013-08-26 07:42:00,
2013-08-26 02:52:00,76.0,70.0,30.11,South,170,0.0,0.0,82,0.00,,,0.00,,2013-08-26 07:52:00,
2013-08-26 03:12:00,75.0,69.0,30.11,South,170,0.0,0.0,83,0.00,,,0.00,,2013-08-26 08:12:00,
2013-08-26 03:22:00,74.0,69.0,30.11,South,170,0.0,0.0,85,0.00,,,0.00,,2013-08-26 08:22:00,
2013-08-26 03:52:00,73.0,69.0,30.11,South,170,0.0,0.0,88,0.00,,,0.00,,2013-08-26 08:52:00,
2013-08-26 04:11:00,73.0,69.0,30.11,South,170,0.0,0.0,88,0.00,,,0.00,,2013-08-26 09:11:00,
2013-08-26 04:21:00,73.0,70.0,30.11,South,170,0.0,0.0,89,0.00,,,0.00,,2013-08-26 09:21:00,
2013-08-26 04:53:00,74.0,70.0,30.11,South,170,0.0,0.0,87,0.00,,,0.00,,2013-08-26 09:53:00,
2013-08-26 05:12:00,74.0,70.0,30.11,South,170,0.0,0.0,86,0.00,,,0.00,,2013-08-26 10:12:00,
2013-08-26 05:23:00,74.0,70.0,30.11,South,170,0.0,0.0,86,0.00,,,0.00,,2013-08-26 10:23:00,
2013-08-26 05:42:00,74.0,70.0,30.11,South,170,0.0,0.0,86,0.00,,,0.00,,2013-08-26 10:42:00,
2013-08-26 05:52:00,74.0,70.0,30.11,South,170,0.0,0.0,87,0.00,,,0.00,,2013-08-26 10:52:00,
2013-08-26 06:12:00,73.0,69.0,30.11,South,170,0.0,0.0,87,0.00,,,0.00,,2013-08-26 11:12:00,
2013-08-26 06:22:00,73.0,69.0,30.11,South,170,0.0,0.0,87,0.00,,,0.00,,2013-08-26 11:22:00,
2013-08-26 06:52:00,73.0,69.0,30.12,South,170,0.0,0.0,88,0.00,,,0.00,,2013-08-26 11:52:00,
2013-08-26 07:12:00,73.0,69.0,30.12,South,170,0.0,0.0,88,0.00,,,0.00,,2013-08-26 12:12:00,
2013-08-26 07:21:00,73.0,69.0,30.12,South,170,0.0,0.0,88,0.00,,,0.00,,2013-08-26 12:21:00,
2013-08-26 07:52:00,72.0,69.0,30.11,South,170,0.0,0.0,89,0.00,,,0.00,,2013-08-26 12:52:00,
2013-08-26 08:12:00,72.0,69.0,30.11,South,170,0.0,0.0,89,0.00,,,0.00,,2013-08-26 13:12:00,
2013-08-26 08:21:00,73.0,70.0,30.14,South,170,0.0,0.0,89,0.00,,,0.00,,2013-08-26 13:21:00,
2013-08-26 08:42:00,75.0,71.0,30.14,South,170,0.0,0.0,87,0.00,,,0.00,,2013-08-26 13:42:00,
2013-08-26 08:52:00,76.0,70.0,30.11,South,170,2.0,2.0,83,0.00,,,0.00,,2013-08-26 13:52:00,
2013-08-26 09:11:00,77.0,71.0,30.14,South,177,3.0,3.0,81,0.00,,,0.00,,2013-08-26 14:11:00,
2013-08-26 09:22:00,78.0,71.0,30.14,SSW,193,4.0,4.0,79,0.00,,,0.00,,2013-08-26 14:22:00,
2013-08-26 09:42:00,79.0,71.0,30.14,SSW,192,4.0,4.0,77,0.00,,,0.00,,2013-08-26 14:42:00,
2013-08-26 09:52:00,80.0,71.0,30.14,SSW,193,7.0,7.0,73,0.00,,,0.00,,2013-08-26 14:52:00,
2013-08-26 10:12:00,82.0,71.0,30.13,South,187,4.0,4.0,69,0.00,,,0.00,,2013-08-26 15:12:00,
2013-08-26 10:22:00,83.0,70.0,30.13,South,171,1.0,1.0,66,0.00,,,0.00,,2013-08-26 15:22:00,
2013-08-26 10:47:00,84.0,70.0,30.13,WSW,244,3.0,3.0,63,0.00,,,0.00,,2013-08-26 15:47:00,
2013-08-26 10:59:00,85.0,70.0,30.13,SSW,196,13.0,13.0,62,0.00,,,0.00,,2013-08-26 15:59:00,
2013-08-26 11:17:00,85.0,70.0,30.13,SSW,202,8.0,8.0,61,0.00,,,0.00,,2013-08-26 16:17:00,
2013-08-26 11:29:00,86.0,70.0,30.13,South,183,0.0,0.0,59,0.00,,,0.00,,2013-08-26 16:29:00,
2013-08-26 11:59:00,88.0,69.0,30.11,SSW,196,3.0,3.0,54,0.00,,,0.00,,2013-08-26 16:59:00,
2013-08-26 12:12:00,88.0,70.0,30.11,SSW,196,0.0,0.0,55,0.00,,,0.00,,2013-08-26 17:12:00,
2013-08-26 12:24:00,88.0,71.0,30.11,South,186,0.0,0.0,57,0.00,,,0.00,,2013-08-26 17:24:00,
2013-08-26 12:43:00,89.0,71.0,30.11,South,190,9.0,9.0,55,0.00,,,0.00,,2013-08-26 17:43:00,
2013-08-26 12:53:00,90.0,71.0,30.11,SSW,195,12.0,12.0,53,0.00,,,0.00,,2013-08-26 17:53:00,
2013-08-26 13:12:00,90.0,71.0,30.10,SSE,168,6.0,6.0,54,0.00,,,0.00,,2013-08-26 18:12:00,
2013-08-26 13:22:00,91.0,70.0,30.09,South,180,7.0,7.0,50,0.00,,,0.00,,2013-08-26 18:22:00,
2013-08-26 13:52:00,91.0,70.0,30.09,SSW,196,7.0,7.0,50,0.00,,,0.00,,2013-08-26 18:52:00,
2013-08-26 14:01:00,91.0,70.0,30.09,SSW,196,7.0,7.0,50,0.00,,,0.00,,2013-08-26 19:01:00,
2013-08-26 14:11:00,91.0,70.0,30.09,SSW,196,7.0,7.0,50,0.00,,,0.00,,2013-08-26 19:11:00,
2013-08-26 14:22:00,91.0,70.0,30.09,SSW,196,7.0,7.0,50,0.00,,,0.00,,2013-08-26 19:22:00,